Погода в Новом Роздоле

Украина / Львовская область     49°28′22″N   24°08′06″E
темп.,
°C
ветер,
м/с
пор.,
м/с
влажн.,
%
обл.,
%
осадки,
мм/ч
давл.,
гПа
погр.,
м
27 января, ср
ср2723:00−3з5119129 0.0 1012471
02:00−2з5108759 0.0 1013695
05:00−4з499298 0.1 1013532
08:00−4зсз499297 0.1 1012508
11:00−2зсз588598 0.1 1012655
14:00−2зсз578699 0.1 1011704
17:00−2зсз3889100 0.0 1011292
20:00−2сз51093100 0.1 1011567
28 января, чт
чт2823:00−3сз4995100 0.4 1011582
02:00−3сз5995100 0.8 1011541
05:00−3сз51092100 0.3 1010536
08:00−4сз51092100 0.4 1010554
11:00−3зсз5788100 0.1 1010623
14:00−2зсз6982100 0.3 1008751
17:00−4зсз238960 0.0 100745
20:00−4зюз238747 0.0 100671
29 января, пт
пт2923:00−3зюз3883100 0.0 1004325
02:00−3з31093100 0.3 1003521
05:00−2зсз41097100 1.3 1001596
08:00−2сз51096100 2.8 1001560
11:00−1з61077100 0.3 1002866
14:000зсз6107267 0.3 1001885
17:00−3сз388037 0.0 1000196
20:00−3ссз228468 0.0 100078
30 января, сб
сб3023:00−3вюв1297100 0.4 1000105
02:00−4вюв2597100 1.1 998171
05:00−4всв4796100 1.8 997282
08:00−4св4696100 4.4 997333
11:00−3ссв3495100 1.4 998340
14:00−2с239399 2.1 998360
17:00−4ссв129799 0.3 99921
20:00−5ссв019794 0.4 100021
31 января, вс
вс3123:00−5с019794 0.4 100122
02:00−5зсз019897 1.3 100224
05:00−5ссз1197100 0.8 100326
08:00−6ссв2296100 1.3 100443
11:00−5с2493100 0.1 1006265
14:00−3ссз3588100 0.1 1006582
17:00−7сз129042 0.0 100721
20:00−9зсз239544 0.0 100921